Ambre Molins

Ambre Molins

Statistiques 2026

  • Courses courues : 176
  • Nb de victoires : 16
  • Nb de places : 41
  • Écart gagnant : -
  • Réussite à la gagne : 9%
  • Réussite à la place : 23%
Musique : 1p 1p 3p 5p 8p 9p 1p 15p 1p 4p 4p 9p 13p 13p 1p 11p 8p 11p
DateRangCatégorieAlloc.Dist.HippodromeChevalPoidsSpé.
28/09/21 3 Galop 16 000€ Mont De Marsan Almazora 55,5 Plat lire

Rapidement à la pointe du combat, a bien tenu sa partie jusqu'à la fin.

22/04/21 5 Galop 12 000€ Moulins Silver Poker 59 Plat
22/04/21 2 Galop 15 000€ Moulins Express 59 Plat lire

Longtemps au sein du peloton, a très bien conclu mais sans pouvoir remonter le lauréat.

23/05/21 8 Galop 15 000€ Moulins Dragon Love 62,5 Plat
23/05/21 2 Galop 19 000€ Moulins Visite D Etat 54,5 Plat lire

Tout de suite à la pointe du combat, ne s'est inclinée que dans les dernières foulées.

16/08/21 6 Galop 15 000€ Moulins Augustine 55,5 Plat
16/08/21 5 Galop 12 000€ Moulins Naomie 56,5 Plat
30/08/21 11 Galop 18 000€ Moulins Sadarak 57 Plat
30/08/21 6 Galop 14 000€ Moulins Etoile Polaire 57 Plat
30/08/21 1 Galop 18 000€ Moulins Galaway 59,5 Plat
03/10/21 0 Galop 12 500€ Moulins Kennya 56,5 Plat
03/10/21 3 Galop 10 000€ Moulins Miss Roazhon 54,5 Plat
03/10/21 1 Galop 10 000€ Moulins Faith Of Hope 56 Plat
29/05/20 8 Galop 13 000€ Moulins L'Optimiste 56 Plat
29/05/20 7 Galop 14 000€ Moulins Wardachan 54,5 Plat
29/05/20 8 Galop 18 000€ Moulins Silver Flyer 56,5 Plat
29/05/20 9 Galop 21 000€ Moulins Fox Tin 61 Plat
29/05/20 9 Galop 15 000€ Moulins Volzapone 60 Plat
25/08/25 1 Galop 11 900€ Moulins Chivere 56,5 Plat
25/08/25 12 Galop 11 900€ Moulins Dschingis Prime 58 Plat
25/08/25 12 Galop 19 200€ Moulins Dulini 59 Plat
28/05/22 4 Galop 12 000€ Moulins Marano 59 Plat
28/05/22 13 Galop 12 000€ Moulins Silver Poker 58,5 Plat
28/05/22 13 Galop 16 000€ Moulins Prospero 62 Plat
28/08/23 2 Galop 23 000€ Moulins Yollilal 56,5 Plat
28/08/23 9 Galop 20 000€ Moulins Fortune Gold 57 Plat
28/08/23 4 Galop 16 000€ Moulins Lagoone Chope 52,5 Plat
28/08/23 5 Galop 20 000€ Moulins Elizabea 55 Plat
26/08/24 2 Galop 17 000€ Moulins Chivere 56,5 Plat
26/08/24 3 Galop 17 000€ Moulins Semillante 60 Plat lire

Après avoir attendu à l'arrière-garde, a conclu de belle façon.

24/09/23 2 Mixte 12 000€ Nancy Visionary Dreamer 58 Plat
24/09/23 1 Mixte 12 000€ Nancy Marie Trezy 54,5 Plat
24/09/23 6 Mixte 14 000€ Nancy Stephanie In Love 54,5 Plat
08/10/23 4 Galop 12 000€ Nancy Fortune Gold 58 Plat
08/10/23 6 Galop 12 500€ Nancy Lelentha 58 Plat
21/10/23 6 Galop 16 000€ Nancy Walencia 56,5 Plat
21/10/23 3 Galop 19 000€ Nancy Topinambur 56 Plat
21/10/23 1 Galop 19 000€ Nancy Reventador 60 Plat
21/10/23 5 Galop 20 000€ Nancy Swag Girl 55 Plat
04/04/24 3 Galop 21 000€ Nancy Vera 56,5 Plat
04/04/24 11 Galop 16 000€ Nancy Kanifushi 60 Plat
04/04/24 4 Galop 18 000€ Nancy Mr Riem 57 Plat
04/04/24 A Galop 14 000€ Nancy Semillante 55 Plat
04/04/24 8 Galop 13 000€ Nancy Bassac 54,5 Plat
05/05/24 13 Galop 15 000€ Nancy Ladybug 58,5 Plat
05/05/24 2 Galop 17 000€ Nancy Sweet Betsy 52,5 Plat
05/05/24 4 Galop 15 000€ Nancy Algot 57 Plat
22/05/24 6 Galop 15 000€ Nancy Adeliade 56,5 Plat
22/05/24 7 Galop 21 000€ Nancy Beg Meil 56,5 Plat
22/05/24 9 Galop 16 000€ Nancy Milad'Id 57 Plat